Time,TemperatureF,DewpointF,PressureIn,WindDirection,WindDirectionDegrees,WindSpeedMPH,WindSpeedGustMPH,Humidity,HourlyPrecipIn,Conditions,Clouds,dailyrainin,SoftwareType,DateUTC
2013-04-03 00:00:00,47.7,43.7,30.19,WNW,294,2.0,3.0,86,0.00,,---,0.00,VWS V14.01,2013-04-03 07:00:00,
2013-04-03 00:05:00,47.6,43.6,30.19,NW,325,0.0,2.0,86,0.00,,---,0.00,VWS V14.01,2013-04-03 07:05:00,
2013-04-03 00:10:00,47.6,43.6,30.19,NW,320,2.0,3.0,86,0.00,,---,0.00,VWS V14.01,2013-04-03 07:10:00,
2013-04-03 00:15:00,47.6,43.6,30.18,North,354,1.0,2.0,86,0.00,,---,0.00,VWS V14.01,2013-04-03 07:15:00,
2013-04-03 00:20:00,47.6,43.6,30.18,NW,316,0.0,4.0,86,0.00,,---,0.00,VWS V14.01,2013-04-03 07:20:00,
2013-04-03 00:25:00,47.5,43.5,30.18,ENE,77,1.0,3.0,86,0.00,,---,0.00,VWS V14.01,2013-04-03 07:25:00,
2013-04-03 00:30:00,47.3,43.6,30.18,NNE,19,0.0,2.0,87,0.00,,---,0.00,VWS V14.01,2013-04-03 07:30:00,
2013-04-03 00:35:00,47.1,43.4,30.18,NW,321,0.0,2.0,87,0.00,,---,0.00,VWS V14.01,2013-04-03 07:35:00,
2013-04-03 00:40:00,47.0,43.3,30.18,NW,323,0.0,1.0,87,0.00,,---,0.00,VWS V14.01,2013-04-03 07:40:00,
2013-04-03 00:45:00,46.9,43.5,30.18,NW,324,0.0,0.0,88,0.00,,---,0.00,VWS V14.01,2013-04-03 07:45:00,
2013-04-03 00:50:00,46.7,43.3,30.18,NW,324,0.0,0.0,88,0.00,,---,0.00,VWS V14.01,2013-04-03 07:50:00,
2013-04-03 00:55:00,46.5,43.4,30.18,WNW,288,0.0,1.0,89,0.00,,---,0.00,VWS V14.01,2013-04-03 07:55:00,
2013-04-03 01:00:00,46.4,43.6,30.18,West,280,0.0,1.0,90,0.00,,---,0.00,VWS V14.01,2013-04-03 08:00:00,
2013-04-03 01:05:00,46.4,43.6,30.19,WNW,284,1.0,1.0,90,0.00,,---,0.00,VWS V14.01,2013-04-03 08:05:00,
2013-04-03 01:10:00,46.5,44.0,30.19,West,278,0.0,2.0,91,0.00,,---,0.00,VWS V14.01,2013-04-03 08:10:00,
2013-04-03 01:15:00,46.5,44.0,30.18,WNW,289,1.0,3.0,91,0.00,,---,0.00,VWS V14.01,2013-04-03 08:15:00,
2013-04-03 01:20:00,46.5,44.0,30.18,NNW,327,1.0,3.0,91,0.00,,---,0.00,VWS V14.01,2013-04-03 08:20:00,
2013-04-03 01:25:00,46.5,43.7,30.18,NW,320,0.0,3.0,90,0.00,,---,0.00,VWS V14.01,2013-04-03 08:25:00,
2013-04-03 01:30:00,46.4,43.9,30.19,NNW,338,1.0,3.0,91,0.00,,---,0.00,VWS V14.01,2013-04-03 08:30:00,
2013-04-03 01:35:00,46.3,43.8,30.19,NW,321,1.0,2.0,91,0.00,,---,0.00,VWS V14.01,2013-04-03 08:35:00,
2013-04-03 01:40:00,46.3,43.8,30.19,SW,229,1.0,1.0,91,0.00,,---,0.00,VWS V14.01,2013-04-03 08:40:00,
2013-04-03 01:45:00,46.3,44.1,30.19,SSW,213,0.0,1.0,92,0.00,,---,0.00,VWS V14.01,2013-04-03 08:45:00,
2013-04-03 01:50:00,46.3,44.1,30.20,WNW,293,0.0,1.0,92,0.00,,---,0.00,VWS V14.01,2013-04-03 08:50:00,
2013-04-03 01:55:00,46.3,44.1,30.20,WNW,289,1.0,1.0,92,0.00,,---,0.00,VWS V14.01,2013-04-03 08:55:00,
2013-04-03 02:00:00,46.3,44.1,30.20,NW,313,1.0,3.0,92,0.00,,---,0.00,VWS V14.01,2013-04-03 09:00:00,
2013-04-03 02:05:00,46.3,44.1,30.19,NNW,333,0.0,4.0,92,0.00,,---,0.00,VWS V14.01,2013-04-03 09:05:00,
2013-04-03 02:10:00,46.3,44.1,30.19,NW,307,0.0,2.0,92,0.00,,---,0.00,VWS V14.01,2013-04-03 09:10:00,
2013-04-03 02:15:00,46.4,44.2,30.19,North,351,2.0,3.0,92,0.00,,---,0.00,VWS V14.01,2013-04-03 09:15:00,
2013-04-03 02:20:00,46.4,44.2,30.19,NNE,25,1.0,3.0,92,0.00,,---,0.00,VWS V14.01,2013-04-03 09:20:00,
2013-04-03 02:25:00,46.5,44.0,30.19,NNW,338,2.0,2.0,91,0.00,,---,0.00,VWS V14.01,2013-04-03 09:25:00,
2013-04-03 02:30:00,46.5,44.0,30.19,West,276,0.0,2.0,91,0.00,,---,0.00,VWS V14.01,2013-04-03 09:30:00,
2013-04-03 02:35:00,46.4,43.9,30.19,NW,307,0.0,2.0,91,0.00,,---,0.00,VWS V14.01,2013-04-03 09:35:00,
2013-04-03 02:40:00,46.3,43.8,30.19,NNW,331,1.0,3.0,91,0.00,,---,0.00,VWS V14.01,2013-04-03 09:40:00,
2013-04-03 02:45:00,46.3,44.1,30.18,NNW,343,0.0,2.0,92,0.00,,---,0.00,VWS V14.01,2013-04-03 09:45:00,
2013-04-03 02:50:00,46.3,44.1,30.18,NE,48,0.0,3.0,92,0.00,,---,0.00,VWS V14.01,2013-04-03 09:50:00,
2013-04-03 02:55:00,46.2,44.0,30.18,NNE,16,2.0,3.0,92,0.00,,---,0.00,VWS V14.01,2013-04-03 09:55:00,
2013-04-03 03:00:00,46.1,43.9,30.18,NE,55,0.0,1.0,92,0.00,,---,0.00,VWS V14.01,2013-04-03 10:00:00,
2013-04-03 03:05:00,46.0,43.8,30.18,NE,55,0.0,0.0,92,0.00,,---,0.00,VWS V14.01,2013-04-03 10:05:00,
2013-04-03 03:10:00,45.8,43.6,30.18,NNE,19,0.0,1.0,92,0.00,,---,0.00,VWS V14.01,2013-04-03 10:10:00,
2013-04-03 03:15:00,45.7,43.8,30.18,North,351,0.0,1.0,93,0.00,,---,0.00,VWS V14.01,2013-04-03 10:15:00,
2013-04-03 03:20:00,45.7,43.8,30.18,North,351,0.0,0.0,93,0.00,,---,0.00,VWS V14.01,2013-04-03 10:20:00,
2013-04-03 03:25:00,45.7,43.8,30.18,SW,229,0.0,1.0,93,0.00,,---,0.00,VWS V14.01,2013-04-03 10:25:00,
2013-04-03 03:30:00,45.8,43.9,30.18,WSW,250,0.0,1.0,93,0.00,,---,0.00,VWS V14.01,2013-04-03 10:30:00,
2013-04-03 03:35:00,45.8,43.9,30.18,WSW,250,0.0,1.0,93,0.00,,---,0.00,VWS V14.01,2013-04-03 10:35:00,
2013-04-03 03:40:00,45.8,43.9,30.18,WSW,250,0.0,0.0,93,0.00,,---,0.00,VWS V14.01,2013-04-03 10:40:00,
2013-04-03 03:45:00,45.8,43.9,30.18,West,260,1.0,1.0,93,0.00,,---,0.00,VWS V14.01,2013-04-03 10:45:00,
2013-04-03 03:50:00,45.9,44.0,30.18,West,278,0.0,1.0,93,0.00,,---,0.00,VWS V14.01,2013-04-03 10:50:00,
2013-04-03 03:55:00,45.9,44.0,30.18,NW,326,0.0,1.0,93,0.00,,---,0.00,VWS V14.01,2013-04-03 10:55:00,
2013-04-03 04:00:00,45.9,44.0,30.18,NW,326,0.0,0.0,93,0.00,,---,0.00,VWS V14.01,2013-04-03 11:00:00,
2013-04-03 04:05:00,46.0,44.1,30.18,East,86,0.0,1.0,93,0.00,,---,0.00,VWS V14.01,2013-04-03 11:05:00,
2013-04-03 04:10:00,46.0,44.1,30.18,East,85,0.0,1.0,93,0.00,,---,0.00,VWS V14.01,2013-04-03 11:10:00,
2013-04-03 04:15:00,45.9,44.0,30.18,East,86,0.0,0.0,93,0.00,,---,0.00,VWS V14.01,2013-04-03 11:15:00,
2013-04-03 04:20:00,45.9,44.0,30.18,East,79,0.0,1.0,93,0.00,,---,0.00,VWS V14.01,2013-04-03 11:20:00,
2013-04-03 04:25:00,45.9,44.0,30.18,WNW,290,1.0,1.0,93,0.00,,---,0.00,VWS V14.01,2013-04-03 11:25:00,
2013-04-03 04:30:00,46.0,44.1,30.18,NNW,347,0.0,2.0,93,0.00,,---,0.00,VWS V14.01,2013-04-03 11:30:00,
2013-04-03 04:35:00,46.0,44.1,30.18,NNW,348,0.0,1.0,93,0.00,,---,0.00,VWS V14.01,2013-04-03 11:35:00,
2013-04-03 04:40:00,46.0,44.1,30.18,NNW,347,0.0,0.0,93,0.00,,---,0.00,VWS V14.01,2013-04-03 11:40:00,
2013-04-03 04:45:00,45.9,44.0,30.18,NNW,347,0.0,0.0,93,0.00,,---,0.00,VWS V14.01,2013-04-03 11:45:00,
2013-04-03 04:50:00,45.7,43.8,30.18,North,349,0.0,0.0,93,0.00,,---,0.00,VWS V14.01,2013-04-03 11:50:00,
2013-04-03 04:55:00,45.7,43.8,30.18,North,352,0.0,0.0,93,0.00,,---,0.00,VWS V14.01,2013-04-03 11:55:00,
2013-04-03 05:00:00,45.5,43.6,30.18,North,352,0.0,0.0,93,0.00,,---,0.00,VWS V14.01,2013-04-03 12:00:00,
2013-04-03 05:05:00,45.4,43.8,30.18,North,352,0.0,0.0,94,0.00,,---,0.00,VWS V14.01,2013-04-03 12:05:00,
2013-04-03 05:10:00,45.3,43.7,30.18,North,352,0.0,0.0,94,0.00,,---,0.00,VWS V14.01,2013-04-03 12:10:00,
2013-04-03 05:15:00,45.3,43.7,30.18,North,352,0.0,0.0,94,0.00,,---,0.00,VWS V14.01,2013-04-03 12:15:00,
2013-04-03 05:20:00,45.2,43.6,30.18,ENE,63,0.0,2.0,94,0.00,,---,0.00,VWS V14.01,2013-04-03 12:20:00,
2013-04-03 05:25:00,45.2,43.6,30.18,East,84,1.0,1.0,94,0.00,,---,0.00,VWS V14.01,2013-04-03 12:25:00,
2013-04-03 05:30:00,45.2,43.6,30.18,East,84,0.0,1.0,94,0.00,,---,0.00,VWS V14.01,2013-04-03 12:30:00,
2013-04-03 05:35:00,45.2,43.6,30.18,East,84,0.0,0.0,94,0.00,,---,0.00,VWS V14.01,2013-04-03 12:35:00,
2013-04-03 05:40:00,45.2,43.6,30.18,East,84,0.0,0.0,94,0.00,,---,0.00,VWS V14.01,2013-04-03 12:40:00,
2013-04-03 05:45:00,45.3,43.7,30.18,ENE,77,0.0,0.0,94,0.00,,---,0.00,VWS V14.01,2013-04-03 12:45:00,
2013-04-03 05:50:00,45.3,43.7,30.18,ENE,77,0.0,0.0,94,0.00,,---,0.00,VWS V14.01,2013-04-03 12:50:00,
2013-04-03 05:55:00,45.3,43.7,30.18,ENE,77,0.0,0.0,94,0.00,,---,0.00,VWS V14.01,2013-04-03 12:55:00,
2013-04-03 06:00:00,45.4,43.8,30.18,NE,40,0.0,0.0,94,0.00,,---,0.00,VWS V14.01,2013-04-03 13:00:00,
2013-04-03 06:05:00,45.5,43.9,30.18,North,11,0.0,1.0,94,0.00,,---,0.00,VWS V14.01,2013-04-03 13:05:00,
2013-04-03 06:10:00,45.6,44.0,30.18,North,8,0.0,1.0,94,0.00,,---,0.00,VWS V14.01,2013-04-03 13:10:00,
2013-04-03 06:15:00,45.6,44.0,30.17,North,9,0.0,0.0,94,0.00,,---,0.00,VWS V14.01,2013-04-03 13:15:00,
2013-04-03 06:20:00,45.7,44.1,30.17,North,9,0.0,0.0,94,0.00,,---,0.00,VWS V14.01,2013-04-03 13:20:00,
2013-04-03 06:25:00,45.7,43.8,30.17,North,9,0.0,0.0,93,0.00,,---,0.00,VWS V14.01,2013-04-03 13:25:00,
2013-04-03 06:30:00,45.7,43.8,30.17,North,10,0.0,0.0,93,0.00,,---,0.00,VWS V14.01,2013-04-03 13:30:00,
2013-04-03 06:35:00,45.8,43.9,30.17,North,10,0.0,0.0,93,0.00,,---,0.00,VWS V14.01,2013-04-03 13:35:00,
2013-04-03 06:40:00,45.8,43.9,30.17,North,10,0.0,0.0,93,0.00,,---,0.00,VWS V14.01,2013-04-03 13:40:00,
2013-04-03 06:45:00,45.9,44.0,30.17,North,10,0.0,0.0,93,0.00,,---,0.00,VWS V14.01,2013-04-03 13:45:00,
2013-04-03 06:50:00,45.9,44.0,30.17,North,10,0.0,1.0,93,0.00,,---,0.00,VWS V14.01,2013-04-03 13:50:00,
2013-04-03 06:55:00,45.9,44.0,30.17,North,10,0.0,1.0,93,0.00,,---,0.00,VWS V14.01,2013-04-03 13:55:00,
2013-04-03 07:00:00,45.9,44.0,30.17,North,10,0.0,0.0,93,0.00,,---,0.00,VWS V14.01,2013-04-03 14:00:00,
2013-04-03 07:05:00,45.9,44.0,30.17,North,10,0.0,0.0,93,0.00,,---,0.00,VWS V14.01,2013-04-03 14:05:00,
2013-04-03 07:10:00,46.0,44.1,30.17,North,10,0.0,0.0,93,0.00,,---,0.00,VWS V14.01,2013-04-03 14:10:00,
2013-04-03 07:15:00,46.0,44.1,30.17,North,10,0.0,0.0,93,0.00,,---,0.00,VWS V14.01,2013-04-03 14:15:00,
2013-04-03 07:20:00,46.1,44.2,30.17,North,10,0.0,0.0,93,0.00,,---,0.00,VWS V14.01,2013-04-03 14:20:00,
2013-04-03 07:25:00,46.1,44.2,30.17,North,10,0.0,0.0,93,0.00,,---,0.00,VWS V14.01,2013-04-03 14:25:00,
2013-04-03 07:30:00,46.3,44.7,30.17,North,10,0.0,0.0,94,0.00,,---,0.00,VWS V14.01,2013-04-03 14:30:00,
2013-04-03 07:35:00,46.4,44.5,30.17,North,10,0.0,0.0,93,0.00,,---,0.00,VWS V14.01,2013-04-03 14:35:00,
2013-04-03 07:39:00,46.7,44.8,30.17,NNE,13,0.0,1.0,93,0.00,,---,0.00,VWS V14.01,2013-04-03 14:39:00,
2013-04-03 07:40:00,46.8,44.9,30.17,NNE,13,0.0,1.0,93,0.00,,---,0.00,VWS V14.01,2013-04-03 14:40:00,
2013-04-03 07:44:00,47.0,45.1,30.17,East,97,0.0,1.0,93,0.00,,---,0.00,VWS V14.01,2013-04-03 14:44:00,
2013-04-03 07:45:00,47.0,45.1,30.17,East,97,0.0,1.0,93,0.00,,---,0.00,VWS V14.01,2013-04-03 14:45:00,
2013-04-03 07:49:00,47.2,45.3,30.17,East,96,0.0,1.0,93,0.00,,---,0.00,VWS V14.01,2013-04-03 14:49:00,
2013-04-03 07:50:00,47.3,45.4,30.17,NNE,20,0.0,1.0,93,0.00,,---,0.00,VWS V14.01,2013-04-03 14:50:00,
2013-04-03 07:54:00,47.5,45.3,30.17,NNE,29,0.0,1.0,92,0.00,,---,0.00,VWS V14.01,2013-04-03 14:54:00,
2013-04-03 07:55:00,47.5,45.3,30.17,NNE,27,0.0,1.0,92,0.00,,---,0.00,VWS V14.01,2013-04-03 14:55:00,
2013-04-03 07:59:00,47.7,45.5,30.17,NE,50,0.0,1.0,92,0.00,,---,0.00,VWS V14.01,2013-04-03 14:59:00,
2013-04-03 08:00:00,47.8,45.6,30.17,NE,50,0.0,1.0,92,0.00,,---,0.00,VWS V14.01,2013-04-03 15:00:00,
2013-04-03 08:04:00,47.9,45.7,30.16,NNE,23,0.0,3.0,92,0.00,,---,0.00,VWS V14.01,2013-04-03 15:04:00,
2013-04-03 08:05:00,48.0,45.8,30.16,NNE,30,0.0,3.0,92,0.00,,---,0.00,VWS V14.01,2013-04-03 15:05:00,
2013-04-03 08:09:00,48.1,45.6,30.16,East,93,1.0,3.0,91,0.00,,---,0.00,VWS V14.01,2013-04-03 15:09:00,
2013-04-03 08:10:00,48.2,45.7,30.16,East,94,1.0,3.0,91,0.00,,---,0.00,VWS V14.01,2013-04-03 15:10:00,
2013-04-03 08:14:00,48.3,45.8,30.16,ENE,62,0.0,2.0,91,0.00,,---,0.00,VWS V14.01,2013-04-03 15:14:00,
2013-04-03 08:15:00,48.5,46.0,30.16,NNE,25,0.0,2.0,91,0.00,,---,0.00,VWS V14.01,2013-04-03 15:15:00,
2013-04-03 08:19:00,48.7,45.9,30.16,ENE,72,1.0,2.0,90,0.00,,---,0.00,VWS V14.01,2013-04-03 15:19:00,
2013-04-03 08:20:00,48.7,45.9,30.16,East,94,2.0,3.0,90,0.00,,---,0.00,VWS V14.01,2013-04-03 15:20:00,
2013-04-03 08:24:00,48.7,45.6,30.16,ENE,70,0.0,2.0,89,0.00,,---,0.00,VWS V14.01,2013-04-03 15:24:00,
2013-04-03 08:25:00,48.8,46.0,30.16,SE,135,0.0,2.0,90,0.00,,---,0.00,VWS V14.01,2013-04-03 15:25:00,
2013-04-03 08:29:00,48.9,46.1,30.16,ENE,68,0.0,2.0,90,0.00,,---,0.00,VWS V14.01,2013-04-03 15:29:00,
2013-04-03 08:30:00,49.0,46.2,30.16,East,96,1.0,2.0,90,0.00,,---,0.00,VWS V14.01,2013-04-03 15:30:00,
2013-04-03 08:35:00,49.2,46.1,30.16,East,97,0.0,2.0,89,0.00,,---,0.00,VWS V14.01,2013-04-03 15:35:00,
2013-04-03 08:40:00,49.1,45.7,30.16,ENE,58,0.0,3.0,88,0.00,,---,0.00,VWS V14.01,2013-04-03 15:40:00,
2013-04-03 08:44:00,49.4,46.3,30.16,ESE,118,1.0,1.0,89,0.00,,---,0.00,VWS V14.01,2013-04-03 15:44:00,
2013-04-03 08:45:00,49.5,46.1,30.16,ESE,118,0.0,1.0,88,0.00,,---,0.00,VWS V14.01,2013-04-03 15:45:00,
2013-04-03 08:49:00,49.4,46.0,30.16,East,101,0.0,3.0,88,0.00,,---,0.00,VWS V14.01,2013-04-03 15:49:00,
2013-04-03 08:50:00,49.5,46.1,30.16,East,80,1.0,3.0,88,0.00,,---,0.00,VWS V14.01,2013-04-03 15:50:00,
2013-04-03 08:54:00,49.7,46.0,30.16,NE,40,0.0,2.0,87,0.00,,---,0.00,VWS V14.01,2013-04-03 15:54:00,
2013-04-03 08:55:00,49.8,46.1,30.16,NE,34,0.0,2.0,87,0.00,,---,0.00,VWS V14.01,2013-04-03 15:55:00,
2013-04-03 09:00:00,50.1,46.4,30.16,NE,53,0.0,2.0,87,0.00,,---,0.00,VWS V14.01,2013-04-03 16:00:00,
2013-04-03 09:05:00,50.1,46.1,30.16,NW,307,2.0,3.0,86,0.00,,---,0.00,VWS V14.01,2013-04-03 16:05:00,
2013-04-03 09:10:00,50.2,46.2,30.15,NW,323,1.0,3.0,86,0.00,,---,0.00,VWS V14.01,2013-04-03 16:10:00,
2013-04-03 09:15:00,50.1,46.1,30.15,NNW,330,1.0,3.0,86,0.00,,---,0.00,VWS V14.01,2013-04-03 16:15:00,
2013-04-03 09:20:00,50.2,45.9,30.15,WNW,294,3.0,4.0,85,0.00,,---,0.00,VWS V14.01,2013-04-03 16:20:00,
2013-04-03 09:25:00,50.3,46.0,30.15,NW,306,0.0,2.0,85,0.00,,---,0.00,VWS V14.01,2013-04-03 16:25:00,
2013-04-03 09:30:00,50.6,46.3,30.15,NNW,328,1.0,3.0,85,0.00,,---,0.00,VWS V14.01,2013-04-03 16:30:00,
2013-04-03 09:35:00,50.8,45.8,30.15,WNW,292,3.0,5.0,83,0.00,,---,0.00,VWS V14.01,2013-04-03 16:35:00,
2013-04-03 09:40:00,51.2,46.5,30.15,WNW,295,2.0,2.0,84,0.00,,---,0.00,VWS V14.01,2013-04-03 16:40:00,
2013-04-03 09:45:00,51.5,46.5,30.15,North,356,0.0,4.0,83,0.00,,---,0.00,VWS V14.01,2013-04-03 16:45:00,
2013-04-03 09:50:00,52.7,46.7,30.14,North,8,2.0,2.0,80,0.00,,---,0.00,VWS V14.01,2013-04-03 16:50:00,
2013-04-03 09:55:00,52.8,46.5,30.14,WNW,300,0.0,3.0,79,0.00,,---,0.00,VWS V14.01,2013-04-03 16:55:00,
2013-04-03 10:00:00,53.0,46.7,30.14,WNW,292,0.0,2.0,79,0.00,,---,0.00,VWS V14.01,2013-04-03 17:00:00,
2013-04-03 10:05:00,52.5,46.2,30.14,WNW,285,1.0,5.0,79,0.00,,---,0.00,VWS V14.01,2013-04-03 17:05:00,
2013-04-03 10:10:00,52.6,46.6,30.14,WNW,289,1.0,4.0,80,0.00,,---,0.00,VWS V14.01,2013-04-03 17:10:00,
2013-04-03 10:15:00,52.7,47.0,30.14,NW,311,4.0,8.0,81,0.00,,---,0.00,VWS V14.01,2013-04-03 17:15:00,
2013-04-03 10:20:00,52.6,46.9,30.14,NW,304,7.0,7.0,81,0.00,,---,0.00,VWS V14.01,2013-04-03 17:20:00,
2013-04-03 10:25:00,52.0,46.7,30.14,NW,313,1.0,7.0,82,0.00,,---,0.00,VWS V14.01,2013-04-03 17:25:00,
2013-04-03 10:30:00,52.1,46.8,30.14,WNW,285,4.0,6.0,82,0.00,,---,0.00,VWS V14.01,2013-04-03 17:30:00,
2013-04-03 10:35:00,51.9,46.6,30.14,NW,310,2.0,7.0,82,0.00,,---,0.00,VWS V14.01,2013-04-03 17:35:00,
2013-04-03 10:40:00,51.7,46.4,30.14,NW,304,2.0,5.0,82,0.00,,---,0.00,VWS V14.01,2013-04-03 17:40:00,
2013-04-03 10:45:00,51.7,46.4,30.14,North,352,2.0,5.0,82,0.00,,---,0.00,VWS V14.01,2013-04-03 17:45:00,
2013-04-03 10:50:00,51.4,46.4,30.14,WNW,293,4.0,5.0,83,0.00,,---,0.00,VWS V14.01,2013-04-03 17:50:00,
2013-04-03 10:55:00,51.4,46.4,30.14,NW,323,2.0,5.0,83,0.00,,---,0.00,VWS V14.01,2013-04-03 17:55:00,
2013-04-03 11:00:00,51.5,46.5,30.14,WNW,297,5.0,8.0,83,0.00,,---,0.00,VWS V14.01,2013-04-03 18:00:00,
2013-04-03 11:05:00,51.3,46.3,30.14,NW,316,2.0,5.0,83,0.00,,---,0.00,VWS V14.01,2013-04-03 18:05:00,
2013-04-03 11:10:00,51.2,45.9,30.14,NNW,338,3.0,5.0,82,0.00,,---,0.00,VWS V14.01,2013-04-03 18:10:00,
2013-04-03 11:15:00,51.3,46.0,30.14,NNW,345,2.0,5.0,82,0.00,,---,0.00,VWS V14.01,2013-04-03 18:15:00,
2013-04-03 11:20:00,51.8,45.8,30.14,NW,315,4.0,8.0,80,0.00,,---,0.00,VWS V14.01,2013-04-03 18:20:00,
2013-04-03 11:25:00,52.5,46.5,30.14,WNW,300,6.0,7.0,80,0.00,,---,0.00,VWS V14.01,2013-04-03 18:25:00,
2013-04-03 11:30:00,52.5,46.5,30.14,WNW,296,3.0,7.0,80,0.00,,---,0.00,VWS V14.01,2013-04-03 18:30:00,
2013-04-03 11:35:00,52.7,46.0,30.14,WNW,299,3.0,8.0,78,0.00,,---,0.00,VWS V14.01,2013-04-03 18:35:00,
2013-04-03 11:40:00,53.0,46.3,30.14,North,350,5.0,7.0,78,0.00,,---,0.00,VWS V14.01,2013-04-03 18:40:00,
2013-04-03 11:45:00,53.0,46.0,30.14,WNW,300,6.0,8.0,77,0.00,,---,0.00,VWS V14.01,2013-04-03 18:45:00,
2013-04-03 11:50:00,53.3,46.3,30.14,NW,322,5.0,7.0,77,0.00,,---,0.00,VWS V14.01,2013-04-03 18:50:00,
2013-04-03 11:55:00,53.9,46.2,30.14,NW,304,4.0,8.0,75,0.00,,---,0.00,VWS V14.01,2013-04-03 18:55:00,
2013-04-03 12:00:00,54.0,46.3,30.14,NNW,327,6.0,8.0,75,0.00,,---,0.00,VWS V14.01,2013-04-03 19:00:00,
2013-04-03 12:05:00,53.9,45.8,30.14,WNW,301,4.0,7.0,74,0.00,,---,0.00,VWS V14.01,2013-04-03 19:05:00,
2013-04-03 12:10:00,53.9,45.8,30.14,WNW,293,3.0,7.0,74,0.00,,---,0.00,VWS V14.01,2013-04-03 19:10:00,
2013-04-03 12:15:00,54.5,45.7,30.14,NW,319,5.0,8.0,72,0.00,,---,0.00,VWS V14.01,2013-04-03 19:15:00,
2013-04-03 12:20:00,54.9,46.4,30.14,NW,307,6.0,6.0,73,0.00,,---,0.00,VWS V14.01,2013-04-03 19:20:00,
2013-04-03 12:25:00,55.5,45.9,30.14,NW,306,8.0,8.0,70,0.00,,---,0.00,VWS V14.01,2013-04-03 19:25:00,
2013-04-03 12:30:00,55.6,45.6,30.14,NNW,337,3.0,8.0,69,0.00,,---,0.00,VWS V14.01,2013-04-03 19:30:00,
2013-04-03 12:35:00,55.7,45.7,30.14,NW,316,6.0,8.0,69,0.00,,---,0.00,VWS V14.01,2013-04-03 19:35:00,
2013-04-03 12:40:00,55.7,45.3,30.14,NW,312,8.0,8.0,68,0.00,,---,0.00,VWS V14.01,2013-04-03 19:40:00,
2013-04-03 12:45:00,55.7,45.7,30.14,NW,314,5.0,8.0,69,0.00,,---,0.00,VWS V14.01,2013-04-03 19:45:00,
2013-04-03 12:50:00,56.8,46.8,30.13,North,6,3.0,5.0,69,0.00,,---,0.00,VWS V14.01,2013-04-03 19:50:00,
2013-04-03 12:55:00,57.3,46.5,30.13,NW,323,0.0,3.0,67,0.00,,---,0.00,VWS V14.01,2013-04-03 19:55:00,
2013-04-03 12:56:00,57.2,46.0,30.13,NW,326,1.0,3.0,66,0.00,,---,0.00,VWS V14.01,2013-04-03 19:56:00,
2013-04-03 13:00:00,57.2,46.4,30.13,WNW,302,4.0,7.0,67,0.00,,---,0.00,VWS V14.01,2013-04-03 20:00:00,
2013-04-03 13:01:00,57.2,46.4,30.13,WNW,288,4.0,7.0,67,0.00,,---,0.00,VWS V14.01,2013-04-03 20:01:00,
2013-04-03 13:05:00,57.3,46.0,30.13,NW,326,4.0,4.0,66,0.00,,---,0.00,VWS V14.01,2013-04-03 20:05:00,
2013-04-03 13:06:00,57.2,46.0,30.13,NNW,331,3.0,4.0,66,0.00,,---,0.00,VWS V14.01,2013-04-03 20:06:00,
2013-04-03 13:10:00,56.8,45.2,30.13,WNW,288,5.0,7.0,65,0.00,,---,0.00,VWS V14.01,2013-04-03 20:10:00,
2013-04-03 13:11:00,56.9,45.3,30.13,West,281,6.0,7.0,65,0.00,,---,0.00,VWS V14.01,2013-04-03 20:11:00,
2013-04-03 13:15:00,56.6,45.8,30.13,NW,311,5.0,8.0,67,0.00,,---,0.00,VWS V14.01,2013-04-03 20:15:00,
2013-04-03 13:20:00,57.2,46.0,30.13,WNW,302,0.0,6.0,66,0.00,,---,0.00,VWS V14.01,2013-04-03 20:20:00,
2013-04-03 13:25:00,57.1,45.9,30.13,NW,316,6.0,8.0,66,0.00,,---,0.00,VWS V14.01,2013-04-03 20:25:00,
2013-04-03 13:30:00,57.6,46.3,30.12,NW,316,6.0,7.0,66,0.00,,---,0.00,VWS V14.01,2013-04-03 20:30:00,
2013-04-03 13:35:00,57.5,45.4,30.12,NW,308,3.0,6.0,64,0.00,,---,0.00,VWS V14.01,2013-04-03 20:35:00,
2013-04-03 13:40:00,57.6,46.3,30.12,West,269,3.0,6.0,66,0.00,,---,0.00,VWS V14.01,2013-04-03 20:40:00,
2013-04-03 13:45:00,57.7,46.0,30.12,WNW,287,5.0,8.0,65,0.00,,---,0.00,VWS V14.01,2013-04-03 20:45:00,
2013-04-03 13:50:00,57.8,45.7,30.12,WNW,293,1.0,5.0,64,0.00,,---,0.00,VWS V14.01,2013-04-03 20:50:00,
2013-04-03 13:51:00,57.8,45.7,30.12,WNW,299,2.0,5.0,64,0.00,,---,0.00,VWS V14.01,2013-04-03 20:51:00,
2013-04-03 13:55:00,58.1,46.0,30.12,WSW,243,2.0,4.0,64,0.00,,---,0.00,VWS V14.01,2013-04-03 20:55:00,
2013-04-03 13:56:00,58.0,45.9,30.12,SSW,212,4.0,4.0,64,0.00,,---,0.00,VWS V14.01,2013-04-03 20:56:00,
2013-04-03 14:00:00,58.6,45.6,30.12,WSW,245,2.0,6.0,62,0.00,,---,0.00,VWS V14.01,2013-04-03 21:00:00,
2013-04-03 14:01:00,58.6,45.6,30.12,WSW,240,4.0,6.0,62,0.00,,---,0.00,VWS V14.01,2013-04-03 21:01:00,
2013-04-03 14:05:00,58.8,45.8,30.12,NW,304,4.0,6.0,62,0.00,,---,0.00,VWS V14.01,2013-04-03 21:05:00,
2013-04-03 14:06:00,58.8,45.8,30.12,NW,304,4.0,6.0,62,0.00,,---,0.00,VWS V14.01,2013-04-03 21:06:00,
2013-04-03 14:10:00,58.9,45.9,30.12,West,278,2.0,6.0,62,0.00,,---,0.00,VWS V14.01,2013-04-03 21:10:00,
2013-04-03 14:11:00,59.0,46.4,30.12,West,269,2.0,2.0,63,0.00,,---,0.00,VWS V14.01,2013-04-03 21:11:00,
2013-04-03 14:15:00,58.8,44.5,30.12,WNW,285,6.0,8.0,59,0.00,,---,0.00,VWS V14.01,2013-04-03 21:15:00,
2013-04-03 14:16:00,58.8,44.5,30.12,NW,309,4.0,6.0,59,0.00,,---,0.00,VWS V14.01,2013-04-03 21:16:00,
2013-04-03 14:20:00,58.5,44.7,30.11,WNW,293,5.0,7.0,60,0.00,,---,0.00,VWS V14.01,2013-04-03 21:20:00,
2013-04-03 14:21:00,58.5,44.7,30.11,WNW,291,3.0,5.0,60,0.00,,---,0.00,VWS V14.01,2013-04-03 21:21:00,
2013-04-03 14:25:00,58.2,44.4,30.11,WNW,289,2.0,6.0,60,0.00,,---,0.00,VWS V14.01,2013-04-03 21:25:00,
2013-04-03 14:26:00,58.2,44.4,30.11,WNW,298,4.0,6.0,60,0.00,,---,0.00,VWS V14.01,2013-04-03 21:26:00,
2013-04-03 14:30:00,58.2,44.8,30.11,NW,306,4.0,6.0,61,0.00,,---,0.00,VWS V14.01,2013-04-03 21:30:00,
2013-04-03 14:31:00,58.1,44.7,30.11,North,352,5.0,5.0,61,0.00,,---,0.00,VWS V14.01,2013-04-03 21:31:00,
2013-04-03 14:35:00,58.5,44.7,30.11,WNW,295,1.0,6.0,60,0.00,,---,0.00,VWS V14.01,2013-04-03 21:35:00,
2013-04-03 14:36:00,58.5,44.7,30.11,WNW,295,0.0,1.0,60,0.00,,---,0.00,VWS V14.01,2013-04-03 21:36:00,
2013-04-03 14:40:00,59.3,45.0,30.11,SW,226,2.0,7.0,59,0.00,,---,0.00,VWS V14.01,2013-04-03 21:40:00,
2013-04-03 14:41:00,59.3,44.5,30.11,SW,228,6.0,6.0,58,0.00,,---,0.00,VWS V14.01,2013-04-03 21:41:00,
2013-04-03 14:45:00,60.0,45.7,30.11,SW,235,3.0,6.0,59,0.00,,---,0.00,VWS V14.01,2013-04-03 21:45:00,
2013-04-03 14:46:00,60.1,45.3,30.11,SW,233,1.0,3.0,58,0.00,,---,0.00,VWS V14.01,2013-04-03 21:46:00,
2013-04-03 14:50:00,59.8,44.5,30.10,WNW,292,4.0,7.0,57,0.00,,---,0.00,VWS V14.01,2013-04-03 21:50:00,
2013-04-03 14:51:00,59.8,45.0,30.10,WNW,298,3.0,6.0,58,0.00,,---,0.00,VWS V14.01,2013-04-03 21:51:00,
2013-04-03 14:55:00,59.2,44.5,30.10,WNW,299,7.0,8.0,58,0.00,,---,0.00,VWS V14.01,2013-04-03 21:55:00,
2013-04-03 14:57:00,59.2,44.5,30.10,NW,307,4.0,7.0,58,0.00,,---,0.00,VWS V14.01,2013-04-03 21:57:00,
2013-04-03 15:00:00,58.9,44.2,30.10,NNW,340,0.0,7.0,58,0.00,,---,0.00,VWS V14.01,2013-04-03 22:00:00,
2013-04-03 15:02:00,58.8,44.1,30.10,NNW,339,0.0,1.0,58,0.00,,---,0.00,VWS V14.01,2013-04-03 22:02:00,
2013-04-03 15:05:00,59.6,44.4,30.10,WNW,288,3.0,5.0,57,0.00,,---,0.00,VWS V14.01,2013-04-03 22:05:00,
2013-04-03 15:07:00,59.6,44.4,30.10,West,259,2.0,3.0,57,0.00,,---,0.00,VWS V14.01,2013-04-03 22:07:00,
2013-04-03 15:10:00,59.7,44.5,30.10,WNW,291,3.0,5.0,57,0.00,,---,0.00,VWS V14.01,2013-04-03 22:10:00,
2013-04-03 15:11:00,59.7,44.5,30.09,WNW,298,3.0,4.0,57,0.00,,---,0.00,VWS V14.01,2013-04-03 22:11:00,
2013-04-03 15:15:00,59.3,43.6,30.10,WNW,293,2.0,4.0,56,0.00,,---,0.00,VWS V14.01,2013-04-03 22:15:00,
2013-04-03 15:17:00,59.3,44.1,30.09,WNW,294,4.0,5.0,57,0.00,,---,0.00,VWS V14.01,2013-04-03 22:17:00,
2013-04-03 15:20:00,59.0,44.3,30.09,WNW,300,2.0,7.0,58,0.00,,---,0.00,VWS V14.01,2013-04-03 22:20:00,
2013-04-03 15:21:00,58.9,44.2,30.09,WNW,297,4.0,4.0,58,0.00,,---,0.00,VWS V14.01,2013-04-03 22:21:00,
2013-04-03 15:25:00,58.8,44.5,30.09,WSW,239,1.0,4.0,59,0.00,,---,0.00,VWS V14.01,2013-04-03 22:25:00,
2013-04-03 15:27:00,58.9,45.5,30.09,West,259,2.0,2.0,61,0.00,,---,0.00,VWS V14.01,2013-04-03 22:27:00,
2013-04-03 15:30:00,59.1,43.9,30.09,SW,234,1.0,4.0,57,0.00,,---,0.00,VWS V14.01,2013-04-03 22:30:00,
2013-04-03 15:31:00,59.1,44.3,30.09,West,262,1.0,1.0,58,0.00,,---,0.00,VWS V14.01,2013-04-03 22:31:00,
2013-04-03 15:35:00,59.3,44.1,30.09,West,266,2.0,4.0,57,0.00,,---,0.00,VWS V14.01,2013-04-03 22:35:00,
2013-04-03 15:37:00,59.3,44.5,30.08,SW,226,1.0,2.0,58,0.00,,---,0.00,VWS V14.01,2013-04-03 22:37:00,
2013-04-03 15:40:00,59.7,44.9,30.08,West,263,1.0,4.0,58,0.00,,---,0.00,VWS V14.01,2013-04-03 22:40:00,
2013-04-03 15:41:00,59.8,45.0,30.08,WSW,247,1.0,2.0,58,0.00,,---,0.00,VWS V14.01,2013-04-03 22:41:00,
2013-04-03 15:45:00,59.9,45.1,30.08,SSE,150,0.0,3.0,58,0.00,,---,0.00,VWS V14.01,2013-04-03 22:45:00,
2013-04-03 15:47:00,60.0,45.2,30.08,SSE,150,0.0,1.0,58,0.00,,---,0.00,VWS V14.01,2013-04-03 22:47:00,
2013-04-03 15:50:00,60.6,44.4,30.08,South,177,1.0,2.0,55,0.00,,---,0.00,VWS V14.01,2013-04-03 22:50:00,
2013-04-03 15:52:00,60.7,44.5,30.08,South,172,2.0,2.0,55,0.00,,---,0.00,VWS V14.01,2013-04-03 22:52:00,
2013-04-03 15:55:00,60.7,44.5,30.08,South,169,2.0,3.0,55,0.00,,---,0.00,VWS V14.01,2013-04-03 22:55:00,
2013-04-03 15:57:00,60.7,44.5,30.08,SSW,210,1.0,2.0,55,0.00,,---,0.00,VWS V14.01,2013-04-03 22:57:00,
2013-04-03 16:00:00,60.5,44.3,30.08,South,191,0.0,2.0,55,0.00,,---,0.00,VWS V14.01,2013-04-03 23:00:00,
2013-04-03 16:01:00,60.5,44.3,30.08,SE,144,0.0,1.0,55,0.00,,---,0.00,VWS V14.01,2013-04-03 23:01:00,
2013-04-03 16:05:00,60.4,44.2,30.07,SW,228,0.0,3.0,55,0.00,,---,0.00,VWS V14.01,2013-04-03 23:05:00,
2013-04-03 16:06:00,60.4,44.7,30.07,West,277,1.0,1.0,56,0.00,,---,0.00,VWS V14.01,2013-04-03 23:06:00,
2013-04-03 16:10:00,60.4,43.7,30.07,NW,319,3.0,5.0,54,0.00,,---,0.00,VWS V14.01,2013-04-03 23:10:00,
2013-04-03 16:11:00,60.3,43.6,30.07,NW,319,3.0,3.0,54,0.00,,---,0.00,VWS V14.01,2013-04-03 23:11:00,
2013-04-03 16:15:00,60.2,44.5,30.07,NW,304,2.0,3.0,56,0.00,,---,0.00,VWS V14.01,2013-04-03 23:15:00,
2013-04-03 16:17:00,60.2,44.5,30.07,NW,311,1.0,2.0,56,0.00,,---,0.00,VWS V14.01,2013-04-03 23:17:00,
2013-04-03 16:20:00,60.3,44.1,30.07,WNW,293,4.0,5.0,55,0.00,,---,0.00,VWS V14.01,2013-04-03 23:20:00,
2013-04-03 16:22:00,60.1,43.9,30.07,NW,314,4.0,5.0,55,0.00,,---,0.00,VWS V14.01,2013-04-03 23:22:00,
2013-04-03 16:25:00,59.6,43.9,30.07,NW,308,4.0,6.0,56,0.00,,---,0.00,VWS V14.01,2013-04-03 23:25:00,
2013-04-03 16:27:00,59.6,43.9,30.07,NW,313,4.0,4.0,56,0.00,,---,0.00,VWS V14.01,2013-04-03 23:27:00,
2013-04-03 16:30:00,59.9,44.2,30.07,NW,308,2.0,5.0,56,0.00,,---,0.00,VWS V14.01,2013-04-03 23:30:00,
2013-04-03 16:32:00,59.9,44.2,30.08,NNW,327,3.0,3.0,56,0.00,,---,0.00,VWS V14.01,2013-04-03 23:32:00,
2013-04-03 16:35:00,59.8,44.5,30.08,West,279,1.0,5.0,57,0.00,,---,0.00,VWS V14.01,2013-04-03 23:35:00,
2013-04-03 16:37:00,59.9,45.1,30.08,West,274,3.0,4.0,58,0.00,,---,0.00,VWS V14.01,2013-04-03 23:37:00,
2013-04-03 16:40:00,59.9,44.7,30.07,WNW,288,3.0,6.0,57,0.00,,---,0.00,VWS V14.01,2013-04-03 23:40:00,
2013-04-03 16:42:00,60.0,44.7,30.07,NW,324,4.0,4.0,57,0.00,,---,0.00,VWS V14.01,2013-04-03 23:42:00,
2013-04-03 16:45:00,60.1,44.8,30.07,WNW,297,2.0,4.0,57,0.00,,---,0.00,VWS V14.01,2013-04-03 23:45:00,
2013-04-03 16:47:00,60.1,44.8,30.07,SW,230,2.0,2.0,57,0.00,,---,0.00,VWS V14.01,2013-04-03 23:47:00,
2013-04-03 16:50:00,60.1,43.9,30.07,SW,221,2.0,4.0,55,0.00,,---,0.00,VWS V14.01,2013-04-03 23:50:00,
2013-04-03 16:52:00,60.0,43.8,30.07,SW,219,0.0,2.0,55,0.00,,---,0.00,VWS V14.01,2013-04-03 23:52:00,
2013-04-03 16:55:00,60.4,44.2,30.07,WNW,287,0.0,3.0,55,0.00,,---,0.00,VWS V14.01,2013-04-03 23:55:00,
2013-04-03 16:57:00,60.4,44.2,30.07,SW,232,0.0,1.0,55,0.00,,---,0.00,VWS V14.01,2013-04-03 23:57:00,
2013-04-03 17:00:00,60.4,44.2,30.06,NW,312,1.0,6.0,55,0.00,,---,0.00,VWS V14.01,2013-04-04 00:00:00,
2013-04-03 17:02:00,60.4,44.2,30.06,WSW,254,1.0,2.0,55,0.00,,---,0.00,VWS V14.01,2013-04-04 00:02:00,
2013-04-03 17:05:00,60.2,44.0,30.06,West,265,1.0,4.0,55,0.00,,---,0.00,VWS V14.01,2013-04-04 00:05:00,
2013-04-03 17:07:00,60.2,44.9,30.06,SW,224,2.0,3.0,57,0.00,,---,0.00,VWS V14.01,2013-04-04 00:07:00,
2013-04-03 17:10:00,60.3,44.6,30.06,NW,309,4.0,4.0,56,0.00,,---,0.00,VWS V14.01,2013-04-04 00:10:00,
2013-04-03 17:12:00,60.3,44.1,30.06,WNW,290,3.0,5.0,55,0.00,,---,0.00,VWS V14.01,2013-04-04 00:12:00,
2013-04-03 17:15:00,60.2,44.5,30.06,WNW,287,3.0,5.0,56,0.00,,---,0.00,VWS V14.01,2013-04-04 00:15:00,
2013-04-03 17:17:00,60.1,44.4,30.06,WNW,289,3.0,4.0,56,0.00,,---,0.00,VWS V14.01,2013-04-04 00:17:00,
2013-04-03 17:20:00,60.0,43.8,30.06,WNW,283,1.0,5.0,55,0.00,,---,0.00,VWS V14.01,2013-04-04 00:20:00,
2013-04-03 17:22:00,59.9,44.2,30.06,WNW,283,1.0,3.0,56,0.00,,---,0.00,VWS V14.01,2013-04-04 00:22:00,
2013-04-03 17:25:00,59.8,44.5,30.06,NW,307,3.0,6.0,57,0.00,,---,0.00,VWS V14.01,2013-04-04 00:25:00,
2013-04-03 17:27:00,59.8,44.5,30.06,NW,308,3.0,3.0,57,0.00,,---,0.00,VWS V14.01,2013-04-04 00:27:00,
2013-04-03 17:30:00,59.7,44.9,30.06,NW,315,2.0,6.0,58,0.00,,---,0.00,VWS V14.01,2013-04-04 00:30:00,
2013-04-03 17:32:00,59.7,44.5,30.06,NW,311,2.0,4.0,57,0.00,,---,0.00,VWS V14.01,2013-04-04 00:32:00,
2013-04-03 17:35:00,59.7,44.5,30.06,WNW,297,2.0,5.0,57,0.00,,---,0.00,VWS V14.01,2013-04-04 00:35:00,
2013-04-03 17:37:00,59.6,43.9,30.05,NW,318,1.0,3.0,56,0.00,,---,0.00,VWS V14.01,2013-04-04 00:37:00,
2013-04-03 17:40:00,59.4,44.6,30.05,WNW,292,1.0,3.0,58,0.00,,---,0.00,VWS V14.01,2013-04-04 00:40:00,
2013-04-03 17:42:00,59.4,44.6,30.05,WNW,285,1.0,2.0,58,0.00,,---,0.00,VWS V14.01,2013-04-04 00:42:00,
2013-04-03 17:45:00,59.3,44.5,30.05,NW,317,0.0,4.0,58,0.00,,---,0.00,VWS V14.01,2013-04-04 00:45:00,
2013-04-03 17:47:00,59.3,44.5,30.05,NW,304,2.0,3.0,58,0.00,,---,0.00,VWS V14.01,2013-04-04 00:47:00,
2013-04-03 17:50:00,59.3,45.0,30.05,NW,318,3.0,4.0,59,0.00,,---,0.00,VWS V14.01,2013-04-04 00:50:00,
2013-04-03 17:52:00,59.3,45.0,30.05,NW,307,2.0,3.0,59,0.00,,---,0.00,VWS V14.01,2013-04-04 00:52:00,
2013-04-03 17:55:00,59.3,45.0,30.05,NW,318,1.0,4.0,59,0.00,,---,0.00,VWS V14.01,2013-04-04 00:55:00,
2013-04-03 17:57:00,59.3,45.0,30.05,NW,311,4.0,5.0,59,0.00,,---,0.00,VWS V14.01,2013-04-04 00:57:00,
2013-04-03 18:00:00,59.2,44.9,30.05,NW,307,3.0,6.0,59,0.00,,---,0.00,VWS V14.01,2013-04-04 01:00:00,
2013-04-03 18:02:00,59.1,44.8,30.04,NW,311,0.0,4.0,59,0.00,,---,0.00,VWS V14.01,2013-04-04 01:02:00,
2013-04-03 18:05:00,59.1,44.8,30.04,NW,311,1.0,5.0,59,0.00,,---,0.00,VWS V14.01,2013-04-04 01:05:00,
2013-04-03 18:07:00,59.1,44.8,30.04,NNW,329,1.0,3.0,59,0.00,,---,0.00,VWS V14.01,2013-04-04 01:07:00,
2013-04-03 18:10:00,59.1,44.8,30.04,NW,323,1.0,3.0,59,0.00,,---,0.00,VWS V14.01,2013-04-04 01:10:00,
2013-04-03 18:12:00,59.0,44.7,30.04,NNW,334,0.0,3.0,59,0.00,,---,0.00,VWS V14.01,2013-04-04 01:12:00,
2013-04-03 18:15:00,59.0,45.2,30.03,NNW,335,2.0,3.0,60,0.00,,---,0.00,VWS V14.01,2013-04-04 01:15:00,
2013-04-03 18:17:00,59.0,44.7,30.03,NNW,330,2.0,3.0,59,0.00,,---,0.00,VWS V14.01,2013-04-04 01:17:00,
2013-04-03 18:20:00,58.9,45.1,30.03,NNE,26,1.0,3.0,60,0.00,,---,0.00,VWS V14.01,2013-04-04 01:20:00,
2013-04-03 18:22:00,58.9,45.1,30.03,NNE,22,0.0,2.0,60,0.00,,---,0.00,VWS V14.01,2013-04-04 01:22:00,
2013-04-03 18:25:00,59.0,45.6,30.03,North,3,0.0,2.0,61,0.00,,---,0.00,VWS V14.01,2013-04-04 01:25:00,
2013-04-03 18:27:00,59.0,45.2,30.03,North,349,1.0,1.0,60,0.00,,---,0.00,VWS V14.01,2013-04-04 01:27:00,
2013-04-03 18:30:00,58.8,44.5,30.02,NNW,338,0.0,2.0,59,0.00,,---,0.00,VWS V14.01,2013-04-04 01:30:00,
2013-04-03 18:32:00,58.7,44.4,30.02,NW,304,1.0,2.0,59,0.00,,---,0.00,VWS V14.01,2013-04-04 01:32:00,
2013-04-03 18:35:00,58.5,44.2,30.02,West,280,0.0,3.0,59,0.00,,---,0.00,VWS V14.01,2013-04-04 01:35:00,
2013-04-03 18:37:00,58.4,44.6,30.02,NNE,27,0.0,1.0,60,0.00,,---,0.00,VWS V14.01,2013-04-04 01:37:00,
2013-04-03 18:40:00,58.2,44.4,30.02,NNW,344,1.0,2.0,60,0.00,,---,0.00,VWS V14.01,2013-04-04 01:40:00,
2013-04-03 18:42:00,58.2,44.8,30.02,NNE,17,2.0,2.0,61,0.00,,---,0.00,VWS V14.01,2013-04-04 01:42:00,
2013-04-03 18:45:00,58.0,44.6,30.02,NW,324,2.0,3.0,61,0.00,,---,0.00,VWS V14.01,2013-04-04 01:45:00,
2013-04-03 18:47:00,57.9,44.1,30.02,NNW,341,3.0,3.0,60,0.00,,---,0.00,VWS V14.01,2013-04-04 01:47:00,
2013-04-03 18:50:00,57.6,44.3,30.02,NW,323,2.0,4.0,61,0.00,,---,0.00,VWS V14.01,2013-04-04 01:50:00,
2013-04-03 18:52:00,57.4,44.1,30.02,NE,46,2.0,3.0,61,0.00,,---,0.00,VWS V14.01,2013-04-04 01:52:00,
2013-04-03 18:55:00,57.2,43.9,30.02,NNW,330,0.0,4.0,61,0.00,,---,0.00,VWS V14.01,2013-04-04 01:55:00,
2013-04-03 18:57:00,57.1,43.8,30.02,NW,323,3.0,4.0,61,0.00,,---,0.00,VWS V14.01,2013-04-04 01:57:00,
2013-04-03 19:00:00,56.9,44.0,30.02,NW,304,3.0,4.0,62,0.00,,---,0.00,VWS V14.01,2013-04-04 02:00:00,
2013-04-03 19:02:00,56.9,44.0,30.02,NNW,333,2.0,3.0,62,0.00,,---,0.00,VWS V14.01,2013-04-04 02:02:00,
2013-04-03 19:05:00,56.8,43.9,30.02,NNW,347,1.0,5.0,62,0.00,,---,0.00,VWS V14.01,2013-04-04 02:05:00,
2013-04-03 19:07:00,56.7,43.8,30.02,NW,304,0.0,2.0,62,0.00,,---,0.00,VWS V14.01,2013-04-04 02:07:00,
2013-04-03 19:10:00,56.7,44.3,30.02,NW,323,2.0,4.0,63,0.00,,---,0.00,VWS V14.01,2013-04-04 02:10:00,
2013-04-03 19:12:00,56.7,44.3,30.01,NNW,338,1.0,2.0,63,0.00,,---,0.00,VWS V14.01,2013-04-04 02:12:00,
2013-04-03 19:15:00,56.6,44.2,30.01,NW,323,2.0,4.0,63,0.00,,---,0.00,VWS V14.01,2013-04-04 02:15:00,
2013-04-03 19:17:00,56.6,44.2,30.01,NW,320,1.0,3.0,63,0.00,,---,0.00,VWS V14.01,2013-04-04 02:17:00,
2013-04-03 19:20:00,56.5,44.1,30.01,NW,325,1.0,4.0,63,0.00,,---,0.00,VWS V14.01,2013-04-04 02:20:00,
2013-04-03 19:22:00,56.5,44.5,30.01,North,3,3.0,3.0,64,0.00,,---,0.00,VWS V14.01,2013-04-04 02:22:00,
2013-04-03 19:25:00,56.4,44.4,30.01,NW,324,2.0,3.0,64,0.00,,---,0.00,VWS V14.01,2013-04-04 02:25:00,
2013-04-03 19:27:00,56.3,44.3,30.01,North,353,0.0,3.0,64,0.00,,---,0.00,VWS V14.01,2013-04-04 02:27:00,
2013-04-03 19:30:00,56.2,44.6,30.01,NNW,347,1.0,3.0,65,0.00,,---,0.00,VWS V14.01,2013-04-04 02:30:00,
2013-04-03 19:32:00,56.1,44.5,30.01,WNW,302,0.0,1.0,65,0.00,,---,0.00,VWS V14.01,2013-04-04 02:32:00,
2013-04-03 19:35:00,55.9,44.7,30.01,NNW,336,1.0,4.0,66,0.00,,---,0.00,VWS V14.01,2013-04-04 02:35:00,
2013-04-03 19:37:00,55.8,44.6,30.01,NNW,333,2.0,5.0,66,0.00,,---,0.00,VWS V14.01,2013-04-04 02:37:00,
2013-04-03 19:40:00,55.5,45.1,30.01,NNW,339,4.0,5.0,68,0.00,,---,0.00,VWS V14.01,2013-04-04 02:40:00,
2013-04-03 19:42:00,55.4,45.0,30.01,NNW,330,1.0,4.0,68,0.00,,---,0.00,VWS V14.01,2013-04-04 02:42:00,
2013-04-03 19:45:00,55.0,45.0,30.01,North,358,1.0,4.0,69,0.00,,---,0.00,VWS V14.01,2013-04-04 02:45:00,
2013-04-03 19:47:00,54.9,45.3,30.01,NNW,330,1.0,5.0,70,0.00,,---,0.00,VWS V14.01,2013-04-04 02:47:00,
2013-04-03 19:50:00,54.7,45.1,30.00,ESE,118,2.0,5.0,70,0.00,,---,0.00,VWS V14.01,2013-04-04 02:50:00,
2013-04-03 19:52:00,54.6,45.0,30.00,NNW,328,1.0,3.0,70,0.00,,---,0.00,VWS V14.01,2013-04-04 02:52:00,
2013-04-03 19:55:00,54.4,45.2,30.00,East,89,0.0,3.0,71,0.00,,---,0.00,VWS V14.01,2013-04-04 02:55:00,
2013-04-03 19:57:00,54.3,45.1,30.00,North,356,2.0,2.0,71,0.00,,---,0.00,VWS V14.01,2013-04-04 02:57:00,
2013-04-03 20:00:00,54.2,45.0,30.00,NNW,337,0.0,3.0,71,0.00,,---,0.00,VWS V14.01,2013-04-04 03:00:00,
2013-04-03 20:02:00,54.1,44.9,30.00,NNW,339,0.0,1.0,71,0.00,,---,0.00,VWS V14.01,2013-04-04 03:02:00,
2013-04-03 20:05:00,53.9,45.1,30.00,NE,54,0.0,2.0,72,0.00,,---,0.00,VWS V14.01,2013-04-04 03:05:00,
2013-04-03 20:07:00,53.9,45.1,30.00,NE,54,1.0,2.0,72,0.00,,---,0.00,VWS V14.01,2013-04-04 03:07:00,
2013-04-03 20:10:00,53.8,45.0,30.00,North,349,0.0,2.0,72,0.00,,---,0.00,VWS V14.01,2013-04-04 03:10:00,
2013-04-03 20:12:00,53.7,44.9,30.00,NNW,341,0.0,2.0,72,0.00,,---,0.00,VWS V14.01,2013-04-04 03:12:00,
2013-04-03 20:15:00,53.6,45.2,30.00,NNW,341,0.0,2.0,73,0.00,,---,0.00,VWS V14.01,2013-04-04 03:15:00,
2013-04-03 20:17:00,53.5,45.1,30.00,North,3,0.0,1.0,73,0.00,,---,0.00,VWS V14.01,2013-04-04 03:17:00,
2013-04-03 20:20:00,53.4,45.0,30.00,NNE,18,0.0,1.0,73,0.00,,---,0.00,VWS V14.01,2013-04-04 03:20:00,
2013-04-03 20:22:00,53.3,44.9,30.00,NNW,333,2.0,2.0,73,0.00,,---,0.00,VWS V14.01,2013-04-04 03:22:00,
2013-04-03 20:25:00,53.2,45.1,30.00,NW,323,1.0,2.0,74,0.00,,---,0.00,VWS V14.01,2013-04-04 03:25:00,
2013-04-03 20:27:00,53.2,44.8,30.00,NW,323,0.0,1.0,73,0.00,,---,0.00,VWS V14.01,2013-04-04 03:27:00,
2013-04-03 20:30:00,53.2,44.8,30.00,NNE,16,0.0,3.0,73,0.00,,---,0.00,VWS V14.01,2013-04-04 03:30:00,
2013-04-03 20:32:00,53.2,44.8,30.00,NNW,338,1.0,2.0,73,0.00,,---,0.00,VWS V14.01,2013-04-04 03:32:00,
2013-04-03 20:35:00,53.2,44.8,30.00,NW,321,2.0,5.0,73,0.00,,---,0.00,VWS V14.01,2013-04-04 03:35:00,
2013-04-03 20:37:00,53.2,44.8,30.00,NE,53,2.0,2.0,73,0.00,,---,0.00,VWS V14.01,2013-04-04 03:37:00,
2013-04-03 20:40:00,53.3,44.9,29.99,ENE,72,2.0,4.0,73,0.00,,---,0.00,VWS V14.01,2013-04-04 03:40:00,
2013-04-03 20:42:00,53.3,44.9,29.99,North,11,0.0,5.0,73,0.00,,---,0.00,VWS V14.01,2013-04-04 03:42:00,
2013-04-03 20:45:00,53.2,44.8,29.99,NNE,27,5.0,5.0,73,0.00,,---,0.00,VWS V14.01,2013-04-04 03:45:00,
2013-04-03 20:47:00,53.1,45.0,29.99,NE,39,2.0,5.0,74,0.00,,---,0.00,VWS V14.01,2013-04-04 03:47:00,
2013-04-03 20:50:00,52.8,45.1,29.99,NE,37,2.0,5.0,75,0.00,,---,0.00,VWS V14.01,2013-04-04 03:50:00,
2013-04-03 20:52:00,52.7,45.4,29.99,NE,50,0.0,4.0,76,0.00,,---,0.00,VWS V14.01,2013-04-04 03:52:00,
2013-04-03 20:55:00,52.4,45.4,29.99,WNW,302,1.0,4.0,77,0.00,,---,0.00,VWS V14.01,2013-04-04 03:55:00,
2013-04-03 20:57:00,52.4,45.4,29.99,North,355,1.0,2.0,77,0.00,,---,0.00,VWS V14.01,2013-04-04 03:57:00,
2013-04-03 21:00:00,52.2,45.2,29.99,WNW,294,1.0,2.0,77,0.00,,---,0.00,VWS V14.01,2013-04-04 04:00:00,
2013-04-03 21:05:00,52.0,45.4,29.99,NW,306,2.0,4.0,78,0.00,,---,0.00,VWS V14.01,2013-04-04 04:05:00,
2013-04-03 21:10:00,51.8,45.5,29.99,WNW,295,2.0,7.0,79,0.00,,---,0.00,VWS V14.01,2013-04-04 04:10:00,
2013-04-03 21:15:00,51.8,45.5,29.99,North,358,1.0,6.0,79,0.00,,---,0.00,VWS V14.01,2013-04-04 04:15:00,
2013-04-03 21:20:00,51.8,45.8,29.99,North,350,1.0,5.0,80,0.00,,---,0.00,VWS V14.01,2013-04-04 04:20:00,
2013-04-03 21:25:00,51.8,45.8,30.00,East,84,1.0,3.0,80,0.00,,---,0.00,VWS V14.01,2013-04-04 04:25:00,
2013-04-03 21:30:00,51.7,45.4,29.99,NNE,20,2.0,4.0,79,0.00,,---,0.00,VWS V14.01,2013-04-04 04:30:00,
2013-04-03 21:35:00,51.7,45.4,29.99,NE,55,2.0,7.0,79,0.00,,---,0.00,VWS V14.01,2013-04-04 04:35:00,
2013-04-03 21:40:00,51.6,45.3,29.99,East,95,0.0,4.0,79,0.00,,---,0.00,VWS V14.01,2013-04-04 04:40:00,
2013-04-03 21:45:00,51.6,45.6,29.99,NNE,25,0.0,2.0,80,0.00,,---,0.00,VWS V14.01,2013-04-04 04:45:00,
2013-04-03 21:50:00,51.5,45.5,29.99,North,11,3.0,3.0,80,0.00,,---,0.00,VWS V14.01,2013-04-04 04:50:00,
2013-04-03 21:55:00,51.3,45.3,29.99,NW,326,0.0,3.0,80,0.00,,---,0.00,VWS V14.01,2013-04-04 04:55:00,
2013-04-03 22:00:00,51.3,45.7,29.99,NW,319,1.0,2.0,81,0.00,,---,0.00,VWS V14.01,2013-04-04 05:00:00,
2013-04-03 22:05:00,51.2,45.6,29.99,NNE,33,0.0,2.0,81,0.00,,---,0.00,VWS V14.01,2013-04-04 05:05:00,
2013-04-03 22:10:00,51.1,45.5,29.98,ESE,110,1.0,3.0,81,0.00,,---,0.00,VWS V14.01,2013-04-04 05:10:00,
2013-04-03 22:15:00,51.0,45.7,29.98,North,11,0.0,3.0,82,0.00,,---,0.00,VWS V14.01,2013-04-04 05:15:00,
2013-04-03 22:20:00,50.9,45.6,29.97,ENE,64,2.0,3.0,82,0.00,,---,0.00,VWS V14.01,2013-04-04 05:20:00,
2013-04-03 22:25:00,50.8,45.5,29.97,NE,53,0.0,2.0,82,0.00,,---,0.00,VWS V14.01,2013-04-04 05:25:00,
2013-04-03 22:30:00,50.6,45.3,29.97,WNW,282,0.0,3.0,82,0.00,,---,0.00,VWS V14.01,2013-04-04 05:30:00,
2013-04-03 22:35:00,50.6,45.3,29.97,North,11,0.0,1.0,82,0.00,,---,0.00,VWS V14.01,2013-04-04 05:35:00,
2013-04-03 22:40:00,50.5,45.2,29.97,NE,51,0.0,1.0,82,0.00,,---,0.00,VWS V14.01,2013-04-04 05:40:00,
2013-04-03 22:45:00,50.5,45.2,29.97,NNE,19,0.0,2.0,82,0.00,,---,0.00,VWS V14.01,2013-04-04 05:45:00,
2013-04-03 22:50:00,50.4,45.1,29.98,NNE,19,0.0,0.0,82,0.00,,---,0.00,VWS V14.01,2013-04-04 05:50:00,
2013-04-03 22:55:00,50.4,45.1,29.98,West,265,1.0,1.0,82,0.00,,---,0.00,VWS V14.01,2013-04-04 05:55:00,
2013-04-03 23:00:00,50.6,45.3,29.97,NW,323,1.0,2.0,82,0.00,,---,0.00,VWS V14.01,2013-04-04 06:00:00,
2013-04-03 23:05:00,50.6,45.3,29.97,NW,316,1.0,3.0,82,0.00,,---,0.00,VWS V14.01,2013-04-04 06:05:00,
2013-04-03 23:10:00,50.7,45.4,29.97,NNW,332,3.0,3.0,82,0.00,,---,0.00,VWS V14.01,2013-04-04 06:10:00,
2013-04-03 23:15:00,50.6,45.3,29.97,North,10,2.0,3.0,82,0.00,,---,0.00,VWS V14.01,2013-04-04 06:15:00,
2013-04-03 23:20:00,50.6,45.3,29.96,NE,55,0.0,2.0,82,0.00,,---,0.00,VWS V14.01,2013-04-04 06:20:00,
2013-04-03 23:25:00,50.6,45.3,29.96,North,358,0.0,2.0,82,0.00,,---,0.00,VWS V14.01,2013-04-04 06:25:00,
2013-04-03 23:30:00,50.5,45.2,29.96,NW,321,4.0,4.0,82,0.00,,---,0.00,VWS V14.01,2013-04-04 06:30:00,
2013-04-03 23:35:00,50.4,45.1,29.96,NE,35,3.0,4.0,82,0.00,,---,0.00,VWS V14.01,2013-04-04 06:35:00,
2013-04-03 23:40:00,50.3,45.0,29.96,North,358,1.0,2.0,82,0.00,,---,0.00,VWS V14.01,2013-04-04 06:40:00,
2013-04-03 23:45:00,50.2,45.2,29.96,NE,40,0.0,3.0,83,0.00,,---,0.00,VWS V14.01,2013-04-04 06:45:00,
2013-04-03 23:50:00,50.1,45.2,29.96,NNE,12,0.0,2.0,83,0.00,,---,0.00,VWS V14.01,2013-04-04 06:50:00,
2013-04-03 23:55:00,50.1,45.2,29.95,NNW,331,1.0,2.0,83,0.00,,---,0.00,VWS V14.01,2013-04-04 06:55:00,